Погода в Кимпхо

Южная Корея     37°36′11″N   126°44′07″E
темп.,
°C
ветер,
м/с
пор.,
м/с
влажн.,
%
обл.,
%
осадки,
мм/ч
давл.,
гПа
погр.,
м
25 октября, пн
пн2500:00+13с124658 0.0 1025102
03:00+12ссв125752 0.0 102484
06:00+11ссв11590 0.0 102449
09:00+13ссв12520 0.0 1025314
12:00+16сз33390 0.0 10241076
15:00+16зсз33335 0.0 10221260
18:00+15зсз33402 0.0 1022715
21:00+14зсз24525 0.0 1023287
26 октября, вт
вт2600:00+13с115915 0.0 102269
03:00+13с11645 0.0 102271
06:00+12ссв1168100 0.0 102259
09:00+13всв1059100 0.0 1022229
12:00+16з2350100 0.0 1022824
15:00+16з2353100 0.0 1019790
18:00+16з2461100 0.0 1020666
21:00+16з2460100 0.0 1019403
27 октября, ср
ср2700:00+16з3661100 0.0 1019425
03:00+16з37655 0.0 1018370
06:00+14сз37750 0.6 1018324
09:00+14сз57620 0.6 1020512
12:00+17сз56320 0.0 10191021
15:00+17сз67270 0.0 10181223
18:00+16сз57360 0.0 1019950
21:00+13сз510450 0.0 1021683
28 октября, чт
чт2800:00+13сз410480 0.0 1021669
03:00+12сз38510 0.0 1021359
06:00+12сз25530 0.0 1022211
09:00+13с24440 0.0 1023331
12:00+16ссз33290 0.0 1023765
15:00+18ссз33240 0.0 10221033
18:00+17ссз23280 0.0 1023173
21:00+15ссв12360 0.0 102455
29 октября, пт
пт2900:00+14вюв12350 0.0 102552
03:00+14всв22395 0.0 102570
06:00+12всв24465 0.0 1026136
09:00+14в3544100 0.0 1028278
12:00+17вюв34388 0.0 10271118
15:00+19ююв233453 0.0 10251453
18:00+18ю12382 0.0 1025189
21:00+16ююз0143100 0.0 1025133